Regional Weather Roundup
Issued by NWS Raleigh/Durham, NC

Home | Current Version | Previous Version | Text Only | Print | Product List | Glossary On
Versions: 1 2 3 4 5 6 7 8 9 10 11 12 13 14 15 16 17 18 19 20 21 22 23 24 25 26 27 28 29 30 31 32 33 34 35 36 37 38 39 40 41 42 43 44 45 46 47 48 49 50
000
ASUS42 KRAH 240310
RWRRAH
NORTH CAROLINA WEATHER ROUNDUP
NATIONAL WEATHER SERVICE RALEIGH NC
1100 PM EDT SUN JUL 23 2017

NOTE: "FAIR" INDICATES FEW OR NO CLOUDS BELOW 12,000 FEET WITH NO
SIGNIFICANT WEATHER AND/OR OBSTRUCTIONS TO VISIBILITY.

NCZ001-053-055-056-065-067-240400-
WESTERN NORTH CAROLINA

CITY           SKY/WX    TMP DP  RH WIND       PRES   REMARKS
ASHEVILLE      MOCLDY    72  70  93 S8        30.03R
JEFFERSON      CLOUDY    70  66  89 CALM      30.04R
HICKORY        MOCLDY    72  70  93 SW8       29.97R
RUTHERFORDTON  MOCLDY    72  72 100 SE6       29.99R
MOUNT AIRY     MOCLDY    74  68  79 CALM      29.97R
BOONE          CLOUDY    71  65  80 CALM      30.05R HAZE
$$

NCZ021-022-025-041-071-084-088-240400-
CENTRAL NORTH CAROLINA

CITY           SKY/WX    TMP DP  RH WIND       PRES   REMARKS
CHARLOTTE      MOCLDY    73  68  84 S7        29.95F
GREENSBORO     CLOUDY    73  70  90 SW10      29.92R
WINSTON-SALEM  MOCLDY    74  66  76 S7        29.95R
RALEIGH-DURHAM CLOUDY    72  71  97 CALM      29.88S
FORT BRAGG     LGT RAIN  73  73 100 SW5         N/A
FAYETTEVILLE   CLOUDY    79  73  82 CALM      29.89R
BURLINGTON     CLOUDY    73  69  87 VRB3      29.90S
LAURINBURG     CLOUDY    73  73 100 S8        29.90R
$$

NCZ011-015-027-028-043-044-047-080-103-240400-
NORTHEASTERN NORTH CAROLINA

CITY           SKY/WX    TMP DP  RH WIND       PRES   REMARKS
ROCKY MT-WILSO CLOUDY    73  72  96 S6        29.85F
GREENVILLE     LGT RAIN  73  72  94 E9        29.91F
WASHINGTON     LGT RAIN  72  70  95 E8        29.93S
ELIZABETH CITY RAIN      72  72 100 SW7       29.90F
MANTEO         LGT RAIN  73  70  90 W13G21    29.92S
CAPE HATTERAS  CLOUDY    79  75  87 W14G22    29.93S
$$

NCZ078-087-090-091-093-098-101-240400-
SOUTHEASTERN NORTH CAROLINA

CITY           SKY/WX    TMP DP  RH WIND       PRES   REMARKS
LUMBERTON      CLOUDY    72  72 100 S5        29.90R
GOLDSBORO      CLOUDY    78  75  89 E7        29.88R
KINSTON        CLOUDY    77  67  72 E3        29.91S
KENANSVILLE    CLOUDY    73  73 100 SE3       29.90F
NEW BERN       CLOUDY    77  70  79 NE12      29.94R
CHERRY POINT   MOCLDY    81  75  82 SW3       29.94R
BEAUFORT       CLOUDY    82  79  90 SW10G18   29.94R
JACKSONVILLE   CLOUDY    80  77  90 CALM      29.92R
WILMINGTON     PTCLDY    81  77  88 S10       29.90F
$$




USA.gov is the U.S. government's official web portal to all federal, state and local government web resources and services.